Other Public Products
Issued by NWS Charleston, SC

Current Version | Previous Version | Graphics & Text | Print | Product List | Glossary On
Versions: 1 2 3 4 5 6 7 8 9 10 11 12 13 14 15 16 17 18 19 20 21 22 23 24 25 26 27 28 29 30 31 32 33 34 35 36 37 38 39 40 41 42 43 44 45 46 47 48 49 50
698 FPUS82 KCHS 210912 OPUCHS TEST...KCHS/KSAV Gateway Observations...TEST National Weather Service Charleston SC 500 AM EDT FRI JUL 21 2017 NOTE: "fair" indicates few or no clouds below 12,000 feet with no significant weather and/or obstructions to visibility. SCZ050-WAZ558-NCZ071-TXZ119-213-PAZ071-DCZ001-FLZ074-172-MI076- NYZ176-178-MAZ016-IL014-TNZ027-NJZ106-GAZ044-MD014-211000- ...Gateway Observations for Charleston International... CITY SKY/WX TMP DP RH WIND PRES REMARKS Chas Airport CLEAR 74 71 91 W5 30.01R Seattle CLEAR 60 52 74 NW3 30.14S Charlotte PTCLDY 76 70 82 CALM 30.01S Dallas DFW CLEAR 84 72 67 S8 29.98F Dallas Love CLEAR 84 71 65 S7 29.99F Philladelphia MOCLDY 80 73 79 W5 29.89S Wash National PTCLDY 84 72 67 CALM 29.92R Baltimore MOCLDY 78 70 76 W5 29.90S Miami PTCLDY 80 76 87 CALM 30.02F THUNDER Detroit PTCLDY 73 70 90 NW3 29.95S Newark MOCLDY 76 69 79 W7 29.88S Laguardia PTCLDY 78 70 76 NW6 29.87R J F K MOCLDY 79 69 71 NW3 29.88R Boston Logan CLEAR 74 63 68 W8 29.83R Ft. Lauderdale PTCLDY 80 78 94 CALM 30.01S Chicago O`Hare CLOUDY 75 70 84 SE6 29.96F Chicago Midway CLOUDY 76 70 82 CALM 29.96F Houston Bush PTCLDY 80 74 81 CALM 30.00F Houston Hobby PTCLDY 80 74 81 CALM 30.00F Nashville PTCLDY 76 73 91 CALM 30.03S Atlanta PTCLDY 77 73 87 NW5 30.02F $$ GAZ044-118-TXZ119-213-NCZ071-DCZ001-MDZ014-506-PAZ021-071-NJZ106- NYZ176-178-MAZ106-OHZ011-021-055-MIZ076-KYZ091-ILZ014-INZ047- MNZ060-ONZ431-211000- ...Gateway Observations for Savannah International... CITY SKY/WX TMP DP RH WIND PRES REMARKS Savannah Arpt CLEAR N/A N/A N/A S3 30.02S Atlanta PTCLDY 77 73 87 NW5 30.02F Charlotte PTCLDY 76 70 82 CALM 30.01S Dallas DFW CLEAR 84 72 67 S8 29.98F Houston Bush PTCLDY 80 74 81 CALM 30.00F Wash National PTCLDY 84 72 67 CALM 29.92R Wash Dulles MOCLDY 75 68 78 CALM 29.93S Baltimore MOCLDY 78 70 76 W5 29.90S Philadelphia MOCLDY 80 73 79 W5 29.89S Newark MOCLDY 76 69 79 W7 29.88S Laguardia PTCLDY 78 70 76 NW6 29.87R J F K MOCLDY 79 69 71 NW3 29.88R Boston CLEAR 74 63 68 W8 29.83R Pittsburg PTCLDY 73 72 96 SW3 29.98S Akron PTCLDY 72 68 87 CALM 29.97F Cleveland PTCLDY 74 70 87 S3 29.97S Cincinnati CLOUDY 78 75 90 SW5 29.99S Columbus PTCLDY 76 76 99 SW6 29.96R Detroit PTCLDY 73 70 90 NW3 29.95S Chicago O`Hare CLOUDY 75 70 84 SE6 29.96F Minneapolis PTCLDY 70 67 90 E7 29.95F Indianapolis CLOUDY 78 74 87 SW5 29.97R Toronto Canada PTCLDY 68 64 88 VRB2 29.90S $$

USA.gov is the U.S. government's official web portal to all federal, state and local government web resources and services.